{"data":{"norad_id":60031,"intl_designator":"2024-111R","name":"STARLINK-31878","alt_names":[],"object_type":"PAYLOAD","status":"ACTIVE","operator":null,"country":"US","launch_date":"2024-06-08","launch_site_code":"AFETR","launch_vehicle":null,"mission":null,"orbit_class":"UNKNOWN","rcs_meters":null,"size_class":null,"mass_kg":null,"dimensions":null,"purposes":["comms"],"wikipedia_slug":null,"has_3d_model":false,"image_url":null,"decayed_at":null,"tle_current":{"epoch":"2026-05-25T04:00:03.998880Z","epoch_age_seconds":71029,"freshness":"FRESH","line1":"1 60031U 24111R   26145.16671295  .00046805  00000+0  14278-2 0  9990","line2":"2 60031  53.1600  28.5557 0001402  72.7555 188.3821 15.33499413  5858","mean_motion":15.33499413,"eccentricity":0.0001402,"inclination_deg":53.16,"raan_deg":28.5557,"arg_perigee_deg":72.7555,"mean_anomaly_deg":188.3821,"bstar":0.0014278,"rev_number":585,"period_min":93.902872592753,"perigee_km":464.42182319655,"apogee_km":466.34074572351,"semimajor_km":6843.51828446,"source":"CELESTRAK","updated_at":"2026-05-25T13:38:19.133807Z"}}}